Location: Henham
(51.9333°N, 0.2500°E)
Time: 08:28:42
(UTC+00:00)

Abrixas rocket - Pass Details

Date: 23 October 2019
Orbit: 359 x 367 km, 48.4° (Epoch: 20 November)

Event Time Altitude Azimuth Distance (km) Brightness Sun altitude
Rises 17:17:21 0° 237° (WSW) 2,216 7.5 -5.1°
Reaches altitude 10° 17:19:31 10° 226° (SW) 1,369 5.9 -5.4°
Maximum altitude 17:22:15 30° 163° (SSE) 704 3.4 -5.8°
Drops below altitude 10° 17:24:59 10° 100° (E) 1,371 4.3 -6.2°
Enters shadow 17:25:29 - 97° (E) 1,559 4.5 -6.3°
